TimeCST,TemperatureF,Dew PointF,Humidity,Sea Level PressureIn,VisibilityMPH,Wind Direction,Wind SpeedMPH,Gust SpeedMPH,PrecipitationIn,Events,Conditions,WindDirDegrees,DateUTC
12:52 AM,21.9,10.9,63,30.32,10.0,SSE,8.1,-,N/A,,Overcast,160,2013-01-15 06:52:00
1:52 AM,19.9,10.9,68,30.31,10.0,South,3.5,-,N/A,,Overcast,180,2013-01-15 07:52:00
2:52 AM,17.1,9.0,71,30.30,10.0,South,4.6,-,N/A,,Partly Cloudy,190,2013-01-15 08:52:00
3:52 AM,14.0,8.6,79,30.22,10.0,SSE,4.6,-,N/A,,Partly Cloudy,160,2013-01-15 09:52:00
4:52 AM,16.0,10.9,81,30.31,10.0,South,3.5,-,N/A,,Overcast,190,2013-01-15 10:52:00
5:52 AM,15.1,10.0,80,30.31,10.0,South,3.5,-,N/A,,Overcast,170,2013-01-15 11:52:00
6:52 AM,14.0,8.1,77,30.32,10.0,South,4.6,-,N/A,,Clear,190,2013-01-15 12:52:00
7:52 AM,15.1,8.1,74,30.32,10.0,SSW,3.5,-,N/A,,Clear,200,2013-01-15 13:52:00
8:52 AM,18.0,10.9,74,30.32,10.0,SW,3.5,-,N/A,,Clear,220,2013-01-15 14:52:00
9:52 AM,23.0,10.0,58,30.31,10.0,SW,6.9,-,N/A,,Clear,230,2013-01-15 15:52:00
10:52 AM,27.0,10.0,49,30.30,10.0,SW,5.8,-,N/A,,Clear,230,2013-01-15 16:52:00
11:52 AM,30.0,12.9,49,30.27,10.0,West,5.8,-,N/A,,Clear,280,2013-01-15 17:52:00
12:52 PM,30.9,15.1,52,30.25,10.0,Variable,3.5,-,N/A,,Scattered Clouds,0,2013-01-15 18:52:00
1:52 PM,30.9,15.1,52,30.22,10.0,SW,5.8,-,N/A,,Scattered Clouds,220,2013-01-15 19:52:00
2:52 PM,34.0,16.0,48,30.22,10.0,Variable,6.9,-,N/A,,Clear,0,2013-01-15 20:52:00
3:52 PM,33.1,15.1,48,30.22,10.0,SW,5.8,-,N/A,,Mostly Cloudy,230,2013-01-15 21:52:00
4:52 PM,33.1,15.1,48,30.23,10.0,West,4.6,-,N/A,,Partly Cloudy,280,2013-01-15 22:52:00
5:52 PM,25.0,16.0,69,30.25,10.0,NW,5.8,-,N/A,,Clear,310,2013-01-15 23:52:00
6:52 PM,21.9,15.1,75,30.26,10.0,WNW,8.1,-,N/A,,Clear,290,2013-01-16 00:52:00
7:52 PM,26.1,16.0,66,30.25,10.0,West,3.5,-,N/A,,Clear,270,2013-01-16 01:52:00
8:52 PM,21.9,15.1,75,30.25,10.0,WSW,5.8,-,N/A,,Clear,250,2013-01-16 02:52:00
9:52 PM,21.9,14.0,72,30.22,10.0,WSW,6.9,-,N/A,,Clear,240,2013-01-16 03:52:00
10:52 PM,21.9,12.9,68,30.21,10.0,WSW,8.1,-,N/A,,Clear,240,2013-01-16 04:52:00
11:52 PM,19.9,12.9,74,30.20,10.0,SW,8.1,-,N/A,,Clear,230,2013-01-16 05:52:00